User: anonymous
Location: Raven Hill Discovery Center
(45.1336°N, 85.0553°W)
Time: 05:49:36
(UTC-04:00)
Language:

Cosmos 1470 - Orbit

View from above orbital plane
View from above orbital plane
View from above satellite
View from above satellite

Ground track
Ground track

The orbit data is extracted from the following two-line orbital elements,

1 14147U 83061A   14211.79784750  .00001975  00000-0  13011-3 0   410
2 14147 082.5103 349.4982 0012992 298.3314 061.6603 15.06932803446069
Epoch (UTC): 30 July 2014 19:08:54
Eccentricity: 0.0012992
inclination: 82.5103°
perigee height: 536 km
apogee height: 554 km
right ascension of ascending node: 349.4982°
argument of perigee: 298.3314°
revolutions per day: 15.06932803
mean anomaly at epoch: 61.6603°
orbit number at epoch: 44606

The dashed part of the orbit path shows where the satellite is in the earth's shadow,  

DLR